EHI
0 2 6 9 9 7 6 3 1 0 1 0 0 0 0 0 1 2 2 3 3 3 2 1 1 1 1 1 1 0 0 0 0 0 0 0 0 0 0 0 0 0 0
2 4 8 9 9 8 7 6 2 1 1 0 0 0 0 0 0 1 1 2 2 3 2 1 1 2 2 2 1 0 0 0 0 0 0 0 0 0 0 0 0 0 0
4 6 9 11 10 9 9 8 4 2 1 1 0 0 0 0 0 0 0 1 1 2 2 1 1 1 2 2 1 0 0 0 0 0 0 0 0 0 0 0 0 0 0
7 8 10 13 12 11 11 9 6 3 2 1 1 0 0 0 0 0 0 0 1 2 2 1 0 0 1 1 0 0 0 0 0 0 0 0 0 0 0 0 0 0 0
8 9 12 15 14 13 13 11 7 4 4 3 1 0 0 0 0 0 0 0 1 1 1 0 0 0 0 0 0 0 1 0 0 0 0 0 0 0 0 0 0 0 0
8 9 14 17 16 15 15 12 8 6 6 4 3 1 1 1 1 1 1 1 0 0 0 0 0 0 0 0 0 0 0 0 0 0 0 0 0 0 0 0 0 0 0
7 9 14 17 16 15 14 11 8 7 6 4 3 3 2 2 2 2 2 2 1 0 0 0 0 0 0 0 0 0 0 0 0 0 0 0 0 0 0 0 0 0 0
6 8 12 15 15 14 12 10 8 6 6 5 4 3 3 3 3 3 3 3 2 0 0 0 0 0 0 0 0 0 0 0 0 0 0 0 0 0 0 0 0 0 0
6 7 10 12 12 11 10 8 7 6 6 6 5 3 3 3 3 3 3 2 1 0 0 0 0 0 0 0 0 0 0 0 0 0 0 0 0 0 0 0 0 0 0
4 5 6 7 7 7 6 5 5 5 5 5 4 2 1 2 2 2 2 1 0 0 0 0 0 0 0 0 0 0 0 0 0 0 0 0 0 0 0 0 0 0 0
3 3 3 3 2 2 2 2 2 2 2 2 2 0 0 1 1 0 0 0 0 0 0 0 0 0 0 0 0 0 0 0 0 0 0 0 0 0 0 0 0 0 0
2 2 1 1 0 0 0 0 0 0 0 0 0 0 0 0 0 0 0 0 0 0 0 0 0 0 0 0 0 0 0 0 0 0 0 0 0 0 0 0 0 0 0
1 1 0 0 0 0 0 0 0 0 0 0 0 0 0 0 0 0 0 0 0 0 0 0 0 0 0 0 0 0 0 0 0 0 0 1 1 1 0 0 0 0 0
0 0 0 0 0 0 0 0 0 0 0 0 0 0 0 0 0 0 0 0 0 0 0 0 0 0 0 0 0 0 0 0 0 0 0 1 2 2 1 0 0 0 0
0 0 0 0 0 0 0 0 0 0 0 0 0 0 0 0 0 0 0 0 0 0 0 0 0 0 0 0 0 0 0 0 0 0 0 0 1 2 1 0 0 0 0
0 0 0 0 0 0 0 0 0 0 0 0 0 0 0 0 0 0 0 0 0 0 0 0 0 0 0 0 0 0 0 0 0 0 0 0 0 1 1 1 0 0 0
0 0 0 0 0 0 0 0 0 0 0 0 0 0 0 0 0 0 0 0 0 0 0 0 0 0 0 0 0 0 0 0 0 0 0 0 0 0 0 1 1 1 0
0 0 0 0 0 0 0 0 0 0 0 0 0 0 0 0 0 0 0 0 0 0 0 0 0 0 0 0 0 0 0 0 0 0 0 0 0 0 0 1 2 1 1
0 0 0 0 0 0 0 0 0 0 0 0 0 0 0 0 0 0 0 0 0 0 0 0 0 0 0 0 0 0 0 0 0 0 0 0 0 0 0 0 1 1 0
0 0 0 0 0 0 0 0 0 0 0 0 0 0 0 0 0 0 0 0 0 0 0 0 0 0 0 0 0 0 0 0 0 0 0 0 0 0 0 0 0 0 0
0 0 0 0 0 0 0 0 0 0 0 0 0 0 0 0 0 0 0 0 0 0 0 0 0 0 0 0 0 0 0 0 0 0 0 0 0 0 0 0 0 0 0
0 0 0 0 0 0 0 0 0 0 0 0 0 0 0 0 0 0 0 0 0 0 0 0 0 0 0 0 0 0 0 0 0 0 0 0 0 0 0 0 0 0 0
0 0 0 0 0 0 0 0 0 0 0 0 0 0 0 0 0 0 0 0 0 0 0 0 0 0 0 0 0 0 0 0 0 0 0 0 0 0 0 0 0 0 0
0 0 0 0 0 0 0 0 0 0 0 0 0 0 0 0 0 0 0 0 0 0 0 0 0 0 0 0 0 0 0 0 0 0 0 0 0 0 0 0 0 0 0
0 0 0 0 0 0 0 0 0 0 0 0 0 0 0 0 0 0 0 0 0 0 0 0 0 0 0 0 0 0 0 0 0 0 0 0 0 0 0 0 0 0 0
0 0 0 0 0 0 0 0 0 0 0 0 0 0 0 0 0 0 0 0 0 0 0 0 0 0 0 0 0 0 0 0 0 0 0 0 0 0 0 0 0 0 0
Wind_Speed
1 2 1 5 6 7 7 8 8 8 9 9 9 9 9 9 10 10 10 10 10 10 10 10 10 10 10 10 10 10 11 11 11 12 11 11 11 12 13 12 11 8 13
1 1 3 5 6 7 7 7 8 8 8 8 9 9 9 9 9 9 9 9 9 9 9 9 9 9 9 9 9 10 10 10 10 10 8 7 9 11 12 11 11 8 13
3 2 3 5 6 7 7 7 7 7 8 8 8 8 8 9 9 9 9 9 9 9 9 8 9 8 8 8 8 9 9 9 9 8 7 4 5 10 11 11 11 12 13
4 3 4 6 6 7 7 7 7 7 7 7 8 8 8 8 8 9 9 9 8 8 8 8 8 7 7 7 7 8 8 9 9 7 4 3 3 9 10 11 11 12 12
5 4 4 7 7 7 7 7 7 7 7 7 7 7 7 8 8 8 8 8 8 7 7 7 6 6 6 6 6 6 7 8 8 6 3 3 3 8 10 10 11 11 12
5 5 5 8 8 8 8 8 7 7 7 7 7 7 7 7 7 8 8 7 7 7 6 6 5 5 5 5 5 6 7 7 6 3 3 2 2 7 10 10 10 11 11
5 4 5 8 8 8 8 9 8 8 7 7 7 7 7 7 7 7 7 7 6 6 6 5 5 5 5 5 5 6 6 6 4 3 3 2 3 8 9 10 10 10 11
5 4 4 7 8 8 8 8 8 8 8 8 7 7 7 7 6 6 6 5 5 6 5 6 5 5 5 5 5 5 5 5 4 3 2 1 4 7 9 9 9 10 10
5 5 4 4 5 7 7 8 8 8 8 8 8 8 7 7 6 6 5 5 5 6 6 6 5 6 5 5 5 5 5 5 3 2 2 1 3 7 8 9 9 9 10
6 5 4 4 4 4 4 7 8 8 8 8 8 8 8 7 6 6 6 5 5 5 5 6 6 6 6 6 5 5 4 4 2 2 1 1 4 6 7 8 8 8 9
7 6 4 4 3 3 3 5 5 6 7 7 6 7 7 4 3 4 5 6 5 5 5 5 5 6 6 6 6 5 3 1 1 1 1 1 4 6 7 8 8 8 9
6 5 4 4 3 2 3 3 2 3 3 4 3 3 3 3 3 4 5 6 6 5 5 5 5 5 5 3 4 4 2 1 1 1 0 2 4 5 7 8 8 8 8
4 5 5 4 3 3 2 2 2 2 2 3 3 3 3 2 2 3 2 3 3 4 3 4 4 3 3 2 2 2 1 1 1 0 1 2 3 5 6 7 8 8 8
4 5 5 4 4 3 2 2 2 2 2 2 2 2 2 2 2 2 2 2 2 2 2 2 2 3 3 3 2 2 2 1 1 0 0 1 2 4 5 6 7 8 8
5 5 5 4 4 3 2 2 2 1 1 2 2 2 2 1 1 1 1 2 2 2 2 2 2 2 2 2 2 2 2 1 1 1 1 1 2 3 4 6 7 8 8
4 5 4 4 4 4 3 2 1 1 1 1 2 2 2 1 1 1 1 1 2 2 2 2 2 2 2 2 2 2 1 1 1 1 1 0 1 3 4 5 5 7 8
3 4 4 4 5 4 4 3 2 1 1 1 1 2 2 2 1 1 1 1 1 2 2 2 2 2 2 2 2 2 1 1 1 1 1 1 1 2 3 4 4 5 7
3 4 5 5 5 5 4 3 2 1 1 1 1 1 2 2 2 1 1 1 1 1 1 2 1 2 2 2 2 2 2 1 1 0 1 1 1 0 1 3 3 4 5
3 3 4 4 4 4 4 3 2 2 1 1 1 1 2 2 1 1 1 1 1 1 1 1 2 1 1 2 2 1 2 1 1 0 0 1 1 0 0 1 2 3 4
4 4 4 4 4 4 3 3 3 3 2 2 1 2 2 1 1 1 1 1 1 1 1 1 2 1 0 1 1 2 2 2 0 0 1 0 0 1 1 1 1 2 3
5 5 5 5 5 4 3 3 2 3 3 2 2 3 2 2 1 1 1 1 1 1 1 0 0 1 1 0 1 1 2 2 1 0 0 1 0 0 1 1 1 0 1
4 4 4 5 4 4 2 2 1 2 2 2 2 3 3 2 2 1 1 1 1 1 1 1 0 0 1 0 1 0 1 2 1 1 1 1 1 0 0 0 1 1 1
4 4 4 4 5 5 4 3 3 2 2 2 3 3 3 3 2 2 2 1 1 1 2 2 2 1 2 2 1 1 2 2 2 2 1 0 0 0 0 1 1 1 1
3 3 4 4 4 5 4 3 3 3 3 4 3 3 4 4 3 3 2 2 2 2 2 3 2 2 3 2 2 1 2 2 2 1 2 1 1 1 1 1 1 1 1
3 3 3 4 4 4 4 4 3 3 3 4 4 4 4 4 3 3 3 2 3 3 3 3 3 3 3 3 2 1 1 1 1 2 2 2 2 1 1 1 1 1 1
3 3 3 3 4 4 4 4 4 4 5 5 5 5 4 4 3 4 4 3 3 3 3 4 4 4 4 4 3 2 2 2 3 2 2 2 3 2 2 1 1 2 1
Wind_Direction
303 294 93 110 100 91 83 78 76 73 69 67 68 69 69 69 68 69 71 71 71 71 71 75 73 72 72 71 72 76 79 81 81 79 77 81 88 94 95 93 90 86 93
191 282 95 105 100 93 84 79 77 74 71 69 71 70 69 69 68 71 72 73 73 73 71 72 72 71 71 69 69 73 75 79 80 74 71 72 83 94 95 93 95 98 96
95 70 89 93 94 89 84 80 77 74 72 71 73 72 70 69 68 70 71 71 72 75 72 70 70 69 69 68 66 71 74 75 73 70 72 67 83 96 100 99 101 100 99
87 67 74 82 86 86 82 81 78 74 72 72 72 71 70 68 68 68 69 67 66 69 72 71 69 68 66 68 69 71 73 72 68 72 70 64 82 100 104 104 104 103 102
67 57 69 78 77 75 77 79 77 76 75 72 72 72 71 68 67 66 66 66 63 64 67 68 67 65 63 67 69 72 73 68 66 65 62 66 76 103 107 107 106 104 105
60 53 59 73 73 71 69 71 73 75 74 72 70 70 71 70 70 67 64 64 62 61 62 62 62 60 57 64 69 76 75 67 66 65 60 66 87 108 109 111 111 109 108
64 54 55 67 68 68 68 65 62 67 69 67 67 67 69 70 69 68 65 63 60 61 59 58 62 57 54 63 69 75 72 67 74 69 65 68 105 115 114 115 117 113 112
75 63 60 68 67 64 64 62 58 60 62 62 60 60 61 61 64 68 67 64 60 60 58 54 54 55 54 57 66 69 71 69 75 76 64 72 116 118 116 115 117 118 115
65 65 55 58 58 57 58 57 54 56 56 55 55 54 52 52 53 58 61 61 58 59 55 48 44 49 49 48 58 62 66 66 65 60 69 87 124 127 123 119 119 122 120
46 49 49 50 52 46 48 51 50 50 52 51 51 50 47 45 46 49 48 54 55 54 51 43 41 41 40 35 39 51 57 60 58 51 33 110 135 136 132 130 127 127 125
36 29 29 38 46 45 53 48 45 46 47 50 45 48 48 35 34 37 34 42 44 44 42 36 38 34 29 26 23 31 44 48 62 45 9 103 130 140 136 133 132 132 129
24 18 18 24 28 42 46 43 31 34 32 35 33 38 41 39 36 40 31 32 28 27 25 26 31 29 21 11 13 24 37 37 57 37 55 104 126 137 142 139 137 137 138
18 18 11 13 21 34 41 43 32 23 22 26 28 33 36 41 35 33 22 18 15 18 14 13 17 12 10 4 11 17 28 39 43 26 72 103 122 138 144 144 144 144 144
22 11 6 13 22 23 42 47 46 28 21 25 20 35 44 42 36 29 21 8 11 7 12 12 8 3 10 7 13 17 21 31 33 19 76 111 138 145 150 152 152 152 149
26 10 4 16 21 16 27 32 53 38 26 20 20 17 38 47 40 33 19 17 8 2 8 6 4 3 5 6 10 20 16 26 34 18 0 109 134 140 155 158 161 160 155
16 5 2 18 15 16 18 15 26 38 38 33 26 6 23 37 36 45 24 17 11 359 354 352 357 5 355 0 2 359 356 33 42 32 11 26 135 135 142 158 161 165 162
15 9 9 20 17 17 10 360 13 10 26 26 10 2 16 29 28 28 38 13 358 351 355 1 7 19 10 7 0 352 351 10 21 40 41 41 73 116 125 142 155 162 171
25 19 14 20 18 13 10 359 354 4 10 356 356 354 2 17 24 19 11 333 341 357 9 9 16 20 11 5 351 338 343 1 350 17 94 82 53 58 121 134 153 162 168
29 21 18 15 17 7 2 357 346 350 1 340 347 351 345 358 13 360 334 317 345 1 7 4 4 17 8 356 342 338 338 325 335 7 124 121 125 108 115 134 135 152 172
30 24 18 12 9 3 2 0 358 355 350 345 341 339 334 327 343 354 341 333 344 359 3 7 356 353 333 329 343 345 322 304 297 176 191 163 136 111 120 127 133 164 173
25 20 15 12 359 1 1 355 352 342 334 335 329 332 322 313 313 333 341 317 314 283 265 256 21 353 329 16 40 356 336 331 329 322 230 163 133 104 110 124 147 156 183
18 9 9 5 357 352 347 331 311 304 309 320 329 338 333 322 310 322 320 308 311 302 271 238 130 354 281 270 135 99 329 321 328 315 265 181 167 71 87 155 162 158 142
8 1 1 355 355 352 352 355 348 343 333 339 335 330 326 321 321 319 302 282 282 267 248 239 196 197 238 272 224 168 183 224 296 294 279 245 167 294 255 236 208 198 202
349 350 353 353 357 355 360 6 2 345 321 311 309 308 315 317 313 313 308 294 268 255 249 247 230 228 210 241 257 247 234 192 192 269 298 294 278 246 242 253 222 230 216
353 353 348 353 358 359 3 4 356 340 313 308 311 314 314 309 308 308 301 293 282 265 251 254 250 233 221 231 238 242 247 257 216 195 252 282 289 261 253 242 244 246 221
0 355 352 355 353 357 2 358 353 338 327 323 320 317 312 307 302 301 294 282 275 272 260 256 253 244 235 236 244 240 221 210 210 198 220 256 266 276 275 244 231 241 226